Volver al catálogo

KUIPER-00120

ActivoComunicacionesLEO
NORAD 65762·PAYLOAD·🇺🇸 United States

Lanzado Sep 25, 2025 desde Cape Canaveral Space Force Station

Loading…

Próximos Pases (próximas 24 horas)

TLE

ActualizadoSource: CelesTrak SupGP

Época: Sep 15, 2026, 02:42 UTC

1 65762C 25217A   26258.11300926  .00000787  00000+0  10305-3 0  2589
2 65762  51.8979 295.4192 0000462  69.0001  34.1438 14.79930229    17

Sigue KUIPER-00120 en tiempo real con AllMySat

Download on the App Store